Location: Atherton
(17.2661°S, 145.4859°E)
Time: 01:43:40
(UTC+10:00)

Courier 1B - All Passes

Search period start: 24 June 2025 00:00
Search period end: 04 July 2025 00:00
Orbit: 962 x 1208 km, 28.3° (Epoch: 23 June)

Date Brightness Start Highest point End Pass type
(mag) Time Alt. Az. Time Alt. Az. Time Alt. Az.
24 Jun - 05:26:03 10° NW 05:32:19 39° NNE 05:38:58 10° E visible
24 Jun - 07:19:19 10° WNW 07:26:24 74° SSW 07:34:01 10° ESE daylight
24 Jun - 09:14:26 10° WSW 09:21:21 40° S 09:28:35 10° ESE daylight
24 Jun - 11:09:46 10° WSW 11:16:49 37° S 11:24:01 10° ESE daylight
24 Jun - 13:04:17 10° WSW 13:12:04 60° SSE 13:19:46 10° E daylight
24 Jun - 14:58:53 10° WSW 15:06:36 58° NNW 15:14:03 10° NE daylight
24 Jun - 16:55:55 10° WNW 17:00:39 17° NNW 17:05:16 10° N daylight
25 Jun - 04:32:56 10° NNW 04:38:29 27° NNE 04:44:18 10° E visible
25 Jun - 06:25:27 10° WNW 06:32:23 87° NNE 06:39:50 10° ESE visible
25 Jun - 08:20:11 10° W 08:27:04 44° SSW 08:34:21 10° ESE daylight
25 Jun - 10:15:35 10° WSW 10:22:27 36° S 10:29:31 10° ESE daylight
25 Jun - 12:10:14 10° WSW 12:17:47 50° SSE 12:25:25 10° E daylight
25 Jun - 14:04:37 10° WSW 14:12:31 76° NNW 14:20:16 10° ENE daylight
25 Jun - 16:00:33 10° W 16:06:40 25° NNW 16:12:37 10° NNE daylight
26 Jun - 03:40:14 10° N 03:44:41 19° NNE 03:49:15 10° ENE visible
26 Jun - 05:31:45 10° NW 05:38:27 67° NNE 05:45:38 10° ESE visible
26 Jun - 07:26:01 10° W 07:32:52 51° SSW 07:40:10 10° ESE daylight
26 Jun - 09:21:23 10° WSW 09:28:04 35° S 09:35:05 10° ESE daylight
26 Jun - 11:16:13 10° WSW 11:23:29 44° SSE 11:30:56 10° E daylight
26 Jun - 13:10:30 10° WSW 13:18:24 86° SSE 13:26:16 10° ENE daylight
26 Jun - 15:05:42 10° W 15:12:41 35° NNW 15:19:29 10° NNE daylight
27 Jun - 02:48:24 10° N 02:50:51 12° NNE 02:53:20 10° NE visible
27 Jun - 04:38:14 10° NW 04:44:36 49° NNE 04:51:20 10° ESE visible
27 Jun - 06:31:57 10° W 06:38:45 62° SSW 06:46:02 10° ESE daylight
27 Jun - 08:27:10 10° WSW 08:33:45 37° S 08:40:42 10° ESE daylight
27 Jun - 10:22:12 10° WSW 10:29:10 39° S 10:36:23 10° ESE daylight
27 Jun - 12:16:28 10° WSW 12:24:13 70° SSE 12:32:06 10° ENE daylight
27 Jun - 14:11:11 10° W 14:18:39 47° NNW 14:26:02 10° NE daylight
27 Jun - 16:09:24 10° WNW 16:12:48 13° NNW 16:16:11 10° N daylight
28 Jun - 03:44:56 10° NNW 03:50:47 35° NNE 03:56:55 10° E visible
28 Jun - 05:38:01 10° WNW 05:44:44 77° SSW 05:51:56 10° ESE visible
28 Jun - 07:32:58 10° WSW 07:39:29 39° S 07:46:25 10° ESE daylight
28 Jun - 09:28:09 10° WSW 09:34:50 36° S 09:41:49 10° ESE daylight
28 Jun - 11:22:29 10° WSW 11:30:01 57° SSE 11:37:45 10° E daylight
28 Jun - 13:16:53 10° WSW 13:24:35 62° NNW 13:32:19 10° NE daylight
28 Jun - 15:13:26 10° WNW 15:18:46 20° NNW 15:24:02 10° N daylight
29 Jun - 02:51:55 10° NNW 02:57:01 24° NNE 03:02:16 10° E visible
29 Jun - 04:44:13 10° WNW 04:50:48 83° NNE 04:57:50 10° ESE visible
29 Jun - 06:38:48 10° W 06:45:18 44° SSW 06:52:13 10° ESE daylight
29 Jun - 08:34:03 10° WSW 08:40:31 34° S 08:47:18 10° ESE daylight
29 Jun - 10:28:34 10° WSW 10:35:46 48° SSE 10:43:17 10° E daylight
29 Jun - 12:22:44 10° WSW 12:30:29 80° NNW 12:38:23 10° ENE daylight
29 Jun - 14:18:19 10° W 14:24:44 27° NNW 14:31:07 10° NNE daylight
30 Jun - 01:59:18 10° N 02:03:14 17° NNE 02:07:12 10° ENE night (unlit)
30 Jun - 03:50:33 10° NW 03:56:58 62° NNE 04:03:41 10° ESE visible
30 Jun - 05:44:41 10° W 05:51:12 52° SSW 05:58:07 10° ESE visible
30 Jun - 07:39:56 10° WSW 07:46:13 34° S 07:52:52 10° ESE daylight
30 Jun - 09:34:39 10° WSW 09:41:31 41° SSE 09:48:44 10° E daylight
30 Jun - 11:28:43 10° WSW 11:36:22 82° SSE 11:44:16 10° ENE daylight
30 Jun - 13:23:38 10° W 13:30:42 37° NNW 13:37:47 10° NE daylight
01 Jul - 01:08:01 10° NNE 01:09:24 11° NNE 01:10:46 10° NE night (unlit)
01 Jul - 02:57:04 10° NW 03:03:10 45° NNE 03:09:29 10° E visible
01 Jul - 04:50:40 10° WNW 04:57:11 64° SSW 05:04:04 10° ESE visible
01 Jul - 06:45:48 10° WSW 06:52:00 35° S 06:58:32 10° ESE daylight
01 Jul - 08:40:43 10° WSW 08:47:15 37° S 08:54:09 10° ESE daylight
01 Jul - 10:34:48 10° WSW 10:42:13 66° SSE 10:49:59 10° ENE daylight
01 Jul - 12:29:16 10° WSW 12:36:38 50° NNW 12:44:11 10° NE daylight
01 Jul - 14:26:48 10° WNW 14:30:53 15° NNW 14:34:58 10° N daylight
02 Jul - 02:03:47 10° NNW 02:09:24 32° NNE 02:15:07 10° E night (unlit)
02 Jul - 03:56:45 10° WNW 04:03:16 81° SSW 04:10:04 10° ESE visible
02 Jul - 05:51:39 10° WSW 05:57:49 38° S 06:04:20 10° ESE visible
02 Jul - 07:46:46 10° WSW 07:53:00 34° S 07:59:36 10° ESE daylight
02 Jul - 09:40:57 10° WSW 09:48:04 54° SSE 09:55:34 10° E daylight
02 Jul - 11:35:06 10° WSW 11:42:35 66° NNW 11:50:21 10° NE daylight
02 Jul - 13:31:14 10° WNW 13:36:49 21° NNW 13:42:26 10° NNE daylight
03 Jul - 01:10:45 10° NNW 01:15:38 22° NNE 01:20:31 10° E night (unlit)
03 Jul - 03:02:57 10° WNW 03:09:24 78° NNE 03:16:04 10° ESE visible
03 Jul - 04:57:30 10° W 05:03:43 44° SSW 05:10:15 10° ESE visible
03 Jul - 06:52:44 10° WSW 06:58:46 33° S 07:05:07 10° ESE daylight
03 Jul - 08:47:08 10° WSW 08:53:54 45° SSE 09:01:03 10° E daylight
03 Jul - 10:41:06 10° WSW 10:48:31 84° NNW 10:56:19 10° ENE daylight
03 Jul - 12:36:21 10° W 12:42:46 29° NNW 12:49:19 10° NNE daylight
